Location: ??
(35.4032°N, 139.3073°E)
Time: 11:07:15
(UTC+00:00)

Cosmos 1943 Rocket - Pass Details

Date: 13 April 2024
Orbit: 810 x 845 km, 71.0° (Epoch: 21 May)

Event Time Altitude Azimuth Distance (km) Brightness Sun altitude
Rises 18:30:53 0° 340° (NNW) 3,402 5.5 -20.1°
Reaches altitude 10° 18:33:20 10° 342° (NNW) 2,467 4.7 -19.7°
Maximum altitude 18:39:01 77° 69° (ENE) 869 2.3 -18.6°
Drops below altitude 10° 18:44:40 10° 155° (SSE) 2,454 4.6 -17.6°
Sets 18:47:06 0° 156° (SSE) 3,384 5.3 -17.2°
